Flag for Colombia Weather past 2 weeks in Bucaramanga, Colombia

Now
75 °F

Scattered showers. Scattered clouds.


Feels Like: 76 °F
Forecast: 66 / 81 °F
Wind: 3 mph from Northwest

Location: Bucaramanga / Palonegro

Current Time: May 30, 2015 at 2:23:46 PM

Latest Report: May 30, 2015 at 2:00 PM


Visibility: N/A

Pressure: 29.94 "Hg

Humidity: 78%

Dew point: 68 °F

Location of BucaramangaLocation

Historic Weather in Bucaramanga — Graph

°F

Bucaramanga temperature yesterday

Maximum temperature yesterday: 77 °F (at 12:00 PM)
Minimum temperature yesterday: 64 °F (at 6:00 AM)
Average temperature yesterday: 71 °F

Past Weeks' High & Low Weather Summary

 TemperatureHumidityPressure
High81 °F (May 23, 10:00 AM)100% (May 16, 6:00 AM)30.38 "Hg (May 16, 6:00 AM)
Low57 °F (May 20, 9:10 PM)58% (May 24, 10:00 AM)29.89 "Hg (May 27, 3:00 PM)
Average72 °F85%30.01 "Hg
* Reported May 15 1:00 PM — May 30 1:00 PM, Bucaramanga, Weather by CustomWeather, © 2015

Note: Actual official high and low records may vary slightly from our data, if they occured in-between our weather recording intervals... More about our weather records

Advertising

Bucaramanga weather history for previous 24 hours

 ConditionsComfort  
Time TempWeatherWind HumidityBarometerVisibility
1:00 PM
Sat, May 30
75 °FScattered clouds.5 mph78%29.96 "HgN/A
12:00 PM77 °FScattered clouds.6 mph69%29.98 "HgN/A
11:00 AM73 °FPartly sunny.3 mph78%29.99 "HgN/A
10:00 AM75 °FScattered clouds.3 mph74%30.01 "HgN/A
9:00 AM72 °FScattered clouds.5 mph83%30.02 "HgN/A
8:00 AM68 °FBroken clouds.No wind94%30.02 "HgN/A
7:00 AM66 °FScattered showers. Broken clouds.No wind94%30.01 "HgN/A
6:00 AM66 °FLight rain. Partly sunny.2 mph100%30.00 "HgN/A
5:30 AM66 °FPartly cloudy.2 mph100%30.00 "Hg5 mi
11:00 PM
Fri, May 29
68 °FPassing clouds.No wind100%30.03 "HgN/A
10:00 PM68 °FFog.3 mph100%30.03 "Hg5 mi
9:00 PM70 °FPassing clouds.2 mph94%30.02 "HgN/A
8:00 PM70 °FPassing clouds.2 mph94%30.00 "HgN/A
7:00 PM70 °FPassing clouds.5 mph94%29.97 "HgN/A
6:00 PM70 °FPartly sunny.6 mph94%29.94 "HgN/A
5:00 PM73 °FDrizzle. Broken clouds.7 mph89%29.93 "HgN/A
4:00 PM73 °FScattered showers. Broken clouds.8 mph83%29.93 "HgN/A
3:00 PM75 °FScattered showers. Broken clouds.8 mph78%29.94 "HgN/A
2:00 PM75 °FScattered showers. Broken clouds.9 mph78%29.97 "HgN/A
Weather by CustomWeather, © 2015

See weather overviewHow to use our weather pages